| time (UTC) | temp C | wind direction | speed KPH | gust KPH | rain 1hr cm | rain 24hr cm | rain mn cm | humidity % | barometer mb |
| 20260505124825 | 25 | 264 | 1.6 | 9.7 | 0.00 | 0.08 | 0.03 | 82 | 1017.1 |
| 20260505124324 | 25 | 289 | 1.6 | 11.3 | 0.00 | 0.08 | 0.03 | 81 | 1017.1 |
| 20260505123821 | 24 | 353 | 1.6 | 11.3 | 0.00 | 0.08 | 0.03 | 83 | 1016.9 |
| 20260505123256 | 24 | 16 | 1.6 | 6.4 | 0.00 | 0.08 | 0.03 | 83 | 1016.9 |
| 20260505122734 | 23 | 305 | 3.2 | 6.4 | 0.00 | 0.08 | 0.03 | 83 | 1016.9 |
| 20260505122500 | 23 | 319 | 3.2 | 9.7 | 0.00 | 0.08 | 0.03 | 83 | 1017.0 |
| 20260505121724 | 23 | 297 | 4.8 | 9.7 | 0.00 | 0.08 | 0.03 | 83 | 1016.8 |
| 20260505121448 | 23 | 306 | 3.2 | 9.7 | 0.00 | 0.08 | 0.03 | 83 | 1016.7 |
| 20260505120716 | 23 | 302 | 1.6 | 8.0 | 0.00 | 0.08 | 0.03 | 84 | 1016.8 |
| 20260505120147 | 23 | 336 | 1.6 | 8.0 | 0.00 | 0.08 | 0.03 | 85 | 1016.7 |
| 20260505115647 | 23 | 120 | 0.0 | 3.2 | 0.00 | 0.08 | 0.03 | 85 | 1016.7 |
| 20260505115139 | 22 | 148 | 1.6 | 8.0 | 0.00 | 0.08 | 0.03 | 85 | 1016.6 |
| 20260505115131 | 23 | 120 | 1.6 | 8.0 | 0.00 | 0.08 | 0.03 | 86 | 1016.7 |
| 20260505114129 | 22 | 127 | 0.0 | 1.6 | 0.00 | 0.08 | 0.03 | 87 | 1016.5 |
| 20260505113637 | 22 | 40 | 0.0 | 0.0 | 0.00 | 0.08 | 0.03 | 89 | 1016.4 |
| 20260505113629 | 22 | 55 | 0.0 | 1.6 | 0.00 | 0.08 | 0.03 | 88 | 1016.6 |
| 20260505112627 | 21 | 45 | 0.0 | 0.0 | 0.00 | 0.08 | 0.03 | 90 | 1016.4 |
| 20260505112124 | 21 | 126 | 0.0 | 0.0 | 0.00 | 0.08 | 0.03 | 90 | 1016.4 |
| 20260505111852 | 21 | 126 | 0.0 | 0.0 | 0.00 | 0.08 | 0.03 | 92 | 1016.3 |
| 20260505111115 | 21 | 91 | 0.0 | 0.0 | 0.00 | 0.08 | 0.03 | 92 | 1016.3 |
| 20260505110617 | 20 | 91 | 0.0 | 1.6 | 0.00 | 0.08 | 0.03 | 92 | 1016.2 |
| 20260505110111 | 20 | 103 | 1.6 | 4.8 | 0.00 | 0.08 | 0.03 | 92 | 1016.0 |
| 20260505101524 | 19 | 265 | 4.8 | 11.3 | 0.00 | 0.08 | 0.03 | 95 | 1015.7 |
| 20260505101023 | 18 | 274 | 1.6 | 11.3 | 0.00 | 0.08 | 0.03 | 95 | 1015.5 |
| 20260505100523 | 18 | 297 | 0.0 | 4.8 | 0.00 | 0.08 | 0.03 | 94 | 1015.4 |
| 20260505100516 | 18 | 79 | 0.0 | 0.0 | 0.00 | 0.08 | 0.03 | 93 | 1015.4 |
| 20260505100246 | 18 | 79 | 0.0 | 0.0 | 0.00 | 0.08 | 0.03 | 93 | 1015.4 |
| 20260505095742 | 18 | 79 | 0.0 | 6.4 | 0.00 | 0.08 | 0.03 | 94 | 1015.3 |
| 20260505095008 | 18 | 79 | 1.6 | 6.4 | 0.00 | 0.08 | 0.03 | 94 | 1015.3 |
| 20260505094507 | 18 | 124 | 1.6 | 4.8 | 0.00 | 0.08 | 0.03 | 94 | 1015.2 |
| 20260505093938 | 19 | 272 | 1.6 | 4.8 | 0.00 | 0.08 | 0.03 | 93 | 1015.1 |
| 20260505093415 | 19 | 171 | 0.0 | 3.2 | 0.00 | 0.08 | 0.03 | 93 | 1015.1 |
| 20260505092915 | 19 | 177 | 0.0 | 3.2 | 0.00 | 0.08 | 0.03 | 93 | 1015.1 |
| 20260505092359 | 19 | 208 | 0.0 | 3.2 | 0.00 | 0.08 | 0.03 | 93 | 1015.0 |
| 20260505091859 | 19 | 267 | 0.0 | 3.2 | 0.00 | 0.08 | 0.03 | 92 | 1014.9 |
| 20260505091614 | 19 | 310 | 1.6 | 4.8 | 0.00 | 0.08 | 0.03 | 92 | 1015.0 |
| 20260505091104 | 20 | 310 | 1.6 | 4.8 | 0.00 | 0.08 | 0.03 | 91 | 1014.9 |
| 20260505090334 | 20 | 42 | 0.0 | 1.6 | 0.00 | 0.08 | 0.03 | 91 | 1014.9 |
| 20260505085830 | 20 | 42 | 0.0 | 1.6 | 0.00 | 0.08 | 0.03 | 90 | 1015.0 |
| 20260505085320 | 20 | 42 | 0.0 | 4.8 | 0.00 | 0.08 | 0.03 | 90 | 1014.8 |
| 20260505084810 | 20 | 42 | 0.0 | 4.8 | 0.00 | 0.08 | 0.03 | 90 | 1014.8 |
| 20260505084254 | 20 | 42 | 0.0 | 4.8 | 0.00 | 0.08 | 0.03 | 90 | 1014.9 |
| 20260505083753 | 20 | 177 | 1.6 | 4.8 | 0.00 | 0.08 | 0.03 | 90 | 1014.8 |
| 20260505083253 | 20 | 86 | 1.6 | 8.0 | 0.00 | 0.08 | 0.03 | 89 | 1015.0 |
| 20260505082752 | 20 | 234 | 1.6 | 8.0 | 0.00 | 0.08 | 0.03 | 89 | 1014.8 |
| 20260505082738 | 21 | 316 | 3.2 | 6.4 | 0.03 | 0.08 | 0.03 | 89 | 1014.7 |
| 20260505081734 | 21 | 278 | 4.8 | 6.4 | 0.03 | 0.08 | 0.03 | 88 | 1014.6 |
| 20260505081223 | 21 | 239 | 3.2 | 6.4 | 0.03 | 0.08 | 0.03 | 88 | 1014.6 |
| 20260505080716 | 21 | 235 | 3.2 | 6.4 | 0.03 | 0.08 | 0.03 | 87 | 1014.7 |
| 20260505080152 | 21 | 256 | 3.2 | 4.8 | 0.03 | 0.08 | 0.03 | 87 | 1014.6 |
| 20260505075923 | 21 | 234 | 3.2 | 9.7 | 0.03 | 0.08 | 0.03 | 87 | 1014.5 |
| 20260505075147 | 21 | 263 | 4.8 | 9.7 | 0.03 | 0.08 | 0.03 | 86 | 1014.5 |
| 20260505074634 | 22 | 284 | 3.2 | 6.4 | 0.03 | 0.08 | 0.03 | 86 | 1014.4 |
| 20260505074110 | 22 | 253 | 3.2 | 9.7 | 0.03 | 0.08 | 0.03 | 86 | 1014.4 |
| 20260505073840 | 22 | 187 | 3.2 | 9.7 | 0.03 | 0.08 | 0.03 | 85 | 1014.4 |
| 20260505073108 | 22 | 207 | 1.6 | 8.0 | 0.03 | 0.08 | 0.03 | 84 | 1014.4 |
| 20260505072607 | 22 | 234 | 3.2 | 12.9 | 0.03 | 0.08 | 0.03 | 86 | 1014.5 |
| 20260505072107 | 22 | 147 | 4.8 | 12.9 | 0.00 | 0.05 | 0.00 | 84 | 1014.4 |
| 20260505071831 | 22 | 312 | 4.8 | 11.3 | 0.00 | 0.05 | 0.00 | 85 | 1014.5 |
| 20260505071058 | 22 | 311 | 3.2 | 11.3 | 0.00 | 0.05 | 0.00 | 85 | 1014.4 |
| 20260505070559 | 21 | 265 | 3.2 | 11.3 | 0.00 | 0.05 | 0.00 | 85 | 1014.4 |
| 20260505070058 | 21 | 312 | 3.2 | 12.9 | 0.00 | 0.05 | 0.00 | 85 | 1014.4 |
| 20260505065539 | 21 | 26 | 3.2 | 12.9 | 0.00 | 0.05 | 0.00 | 85 | 1014.3 |
| 20260505065241 | 22 | 111 | 3.2 | 16.1 | 0.00 | 0.05 | 0.00 | 85 | 1014.4 |
| 20260505064739 | 22 | 103 | 1.6 | 16.1 | 0.00 | 0.05 | 0.00 | 84 | 1014.5 |
| 20260505064007 | 22 | 338 | 3.2 | 20.9 | 0.00 | 0.05 | 0.00 | 85 | 1014.5 |
| 20260505063736 | 22 | 315 | 6.4 | 20.9 | 0.00 | 0.05 | 0.00 | 85 | 1014.5 |
| 20260505062942 | 22 | 240 | 4.8 | 14.5 | 0.00 | 0.05 | 0.00 | 84 | 1014.7 |
| 20260505062440 | 22 | 315 | 3.2 | 4.8 | 0.00 | 0.05 | 0.00 | 85 | 1014.5 |
| 20260505061917 | 22 | 214 | 3.2 | 9.7 | 0.00 | 0.05 | 0.00 | 85 | 1014.7 |
| 20260505061416 | 22 | 253 | 1.6 | 9.7 | 0.00 | 0.05 | 0.00 | 84 | 1014.6 |
| 20260505060901 | 22 | 358 | 1.6 | 11.3 | 0.00 | 0.05 | 0.00 | 84 | 1014.7 |
| 20260505060632 | 22 | 320 | 3.2 | 11.3 | 0.00 | 0.05 | 0.00 | 83 | 1014.6 |
| 20260505055859 | 22 | 200 | 4.8 | 14.5 | 0.00 | 0.05 | 0.00 | 83 | 1014.7 |
| 20260505055630 | 22 | 277 | 4.8 | 14.5 | 0.00 | 0.05 | 0.00 | 83 | 1014.6 |
| 20260505054847 | 22 | 318 | 3.2 | 11.3 | 0.00 | 0.05 | 0.00 | 83 | 1014.6 |
| 20260505054319 | 22 | 345 | 4.8 | 11.3 | 0.00 | 0.05 | 0.00 | 83 | 1014.8 |
| 20260505053815 | 22 | 281 | 4.8 | 17.7 | 0.00 | 0.05 | 0.00 | 83 | 1014.8 |
| 20260505053315 | 22 | 287 | 4.8 | 17.7 | 0.00 | 0.05 | 0.00 | 83 | 1014.8 |
| 20260505052816 | 22 | 332 | 3.2 | 14.5 | 0.00 | 0.05 | 0.00 | 84 | 1014.8 |
| 20260505052312 | 22 | 329 | 3.2 | 11.3 | 0.00 | 0.05 | 0.00 | 84 | 1014.8 |
| 20260505051746 | 22 | 231 | 3.2 | 9.7 | 0.00 | 0.05 | 0.00 | 85 | 1014.9 |
| 20260505051253 | 22 | 284 | 1.6 | 8.0 | 0.00 | 0.05 | 0.00 | 85 | 1014.8 |
| 20260505051245 | 22 | 220 | 3.2 | 9.7 | 0.00 | 0.05 | 0.00 | 85 | 1014.8 |
| 20260505050244 | 22 | 290 | 1.6 | 4.8 | 0.00 | 0.05 | 0.00 | 85 | 1014.9 |
| 20260505041056 | 21 | 237 | 1.6 | 6.4 | 0.00 | 0.05 | 0.00 | 91 | 1015.1 |
| 20260505040539 | 20 | 141 | 1.6 | 11.3 | 0.00 | 0.05 | 0.00 | 92 | 1015.0 |
| 20260505040025 | 20 | 244 | 1.6 | 11.3 | 0.00 | 0.05 | 0.00 | 93 | 1015.1 |
| 20260505035525 | 20 | 115 | 1.6 | 8.0 | 0.00 | 0.05 | 0.00 | 93 | 1015.1 |
| 20260505035400 | 20 | 204 | 1.6 | 6.4 | 0.00 | 0.05 | 0.00 | 95 | 1015.1 |
| 20260505035252 | 20 | 159 | 1.6 | 8.0 | 0.00 | 0.05 | 0.00 | 94 | 1015.0 |
| 20260505034249 | 20 | 171 | 1.6 | 6.4 | 0.00 | 0.05 | 0.00 | 95 | 1015.2 |
| 20260505033746 | 20 | 209 | 1.6 | 6.4 | 0.00 | 0.05 | 0.00 | 95 | 1015.1 |
| 20260505032948 | 19 | 172 | 1.6 | 6.4 | 0.00 | 0.05 | 0.00 | 96 | 1015.0 |
| 20260505032449 | 19 | 57 | 0.0 | 6.4 | 0.00 | 0.05 | 0.00 | 96 | 1015.0 |
| 20260505031949 | 19 | 241 | 0.0 | 4.8 | 0.00 | 0.05 | 0.00 | 96 | 1015.1 |
| 20260505031438 | 19 | 45 | 0.0 | 4.8 | 0.00 | 0.05 | 0.00 | 97 | 1015.0 |
| 20260505030913 | 19 | 10 | 1.6 | 8.0 | 0.00 | 0.05 | 0.00 | 97 | 1015.1 |
| 20260505030402 | 19 | 218 | 3.2 | 8.0 | 0.00 | 0.05 | 0.00 | 97 | 1015.0 |
| 20260505030335 | 19 | 224 | 1.6 | 6.4 | 0.00 | 0.05 | 0.05 | 98 | 1015.1 |
| 20260505025605 | 19 | 220 | 3.2 | 12.9 | 0.00 | 0.05 | 0.05 | 98 | 1015.0 |
| 20260505025051 | 19 | 208 | 1.6 | 12.9 | 0.00 | 0.05 | 0.05 | 98 | 1015.0 |
| 20260505024310 | 18 | 244 | 0.0 | 3.2 | 0.00 | 0.05 | 0.05 | 97 | 1015.1 |
| 20260505023753 | 18 | 258 | 0.0 | 3.2 | 0.00 | 0.05 | 0.05 | 97 | 1015.0 |
| 20260505023253 | 18 | 85 | 0.0 | 4.8 | 0.00 | 0.05 | 0.05 | 97 | 1015.1 |
| 20260505022753 | 18 | 297 | 0.0 | 4.8 | 0.00 | 0.05 | 0.05 | 97 | 1015.1 |
| 20260505022253 | 18 | 145 | 1.6 | 6.4 | 0.00 | 0.05 | 0.05 | 97 | 1015.1 |
| 20260505021736 | 18 | 347 | 0.0 | 9.7 | 0.00 | 0.05 | 0.05 | 97 | 1015.0 |
| 20260505021729 | 18 | 29 | 1.6 | 9.7 | 0.00 | 0.05 | 0.05 | 97 | 1015.1 |
| 20260505020715 | 18 | 320 | 0.0 | 3.2 | 0.00 | 0.05 | 0.05 | 97 | 1015.1 |
| 20260505020211 | 18 | 320 | 0.0 | 4.8 | 0.00 | 0.05 | 0.05 | 97 | 1015.1 |
| 20260505015706 | 18 | 282 | 0.0 | 4.8 | 0.00 | 0.05 | 0.05 | 97 | 1015.0 |
| 20260505015208 | 19 | 261 | 1.6 | 8.0 | 0.00 | 0.05 | 0.05 | 98 | 1014.9 |
| 20260505014651 | 19 | 121 | 1.6 | 8.0 | 0.00 | 0.05 | 0.05 | 98 | 1015.0 |
| 20260505014149 | 19 | 4 | 1.6 | 8.0 | 0.00 | 0.05 | 0.05 | 98 | 1014.9 |
| 20260505013646 | 19 | 4 | 3.2 | 8.0 | 0.00 | 0.05 | 0.05 | 98 | 1015.0 |
| 20260505013136 | 19 | 182 | 1.6 | 8.0 | 0.00 | 0.05 | 0.05 | 98 | 1014.9 |
| 20260505012906 | 19 | 158 | 0.0 | 4.8 | 0.00 | 0.05 | 0.05 | 98 | 1014.9 |
| 20260505012135 | 19 | 34 | 1.6 | 3.2 | 0.00 | 0.05 | 0.05 | 98 | 1015.0 |
| 20260505011619 | 18 | 177 | 1.6 | 8.0 | 0.00 | 0.05 | 0.05 | 98 | 1015.0 |
| 20260505011101 | 18 | 212 | 0.0 | 3.2 | 0.00 | 0.05 | 0.05 | 98 | 1014.8 |
| 20260505011049 | 18 | 244 | 0.0 | 6.4 | 0.00 | 0.05 | 0.05 | 98 | 1014.9 |
| 20260505010040 | 18 | 177 | 0.0 | 3.2 | 0.00 | 0.05 | 0.05 | 98 | 1014.9 |
| 20260505005539 | 18 | 187 | 0.0 | 3.2 | 0.00 | 0.05 | 0.05 | 97 | 1014.7 |
| 20260505005017 | 18 | 72 | 1.6 | 6.4 | 0.00 | 0.05 | 0.05 | 97 | 1014.7 |
| 20260505004515 | 18 | 97 | 1.6 | 6.4 | 0.00 | 0.05 | 0.05 | 98 | 1014.7 |
| 20260505004014 | 18 | 187 | 1.6 | 6.4 | 0.00 | 0.05 | 0.05 | 97 | 1014.6 |
| 20260505003512 | 18 | 258 | 0.0 | 3.2 | 0.00 | 0.05 | 0.05 | 97 | 1014.6 |
| 20260505003014 | 18 | 331 | 0.0 | 1.6 | 0.00 | 0.05 | 0.05 | 97 | 1014.7 |
| 20260505002456 | 18 | 346 | 0.0 | 4.8 | 0.00 | 0.05 | 0.05 | 97 | 1014.7 |
| 20260505001930 | 18 | 73 | 0.0 | 4.8 | 0.00 | 0.05 | 0.05 | 97 | 1014.7 |
| 20260505001413 | 18 | 5 | 0.0 | 0.0 | 0.00 | 0.05 | 0.05 | 97 | 1014.7 |
| 20260505000906 | 18 | 5 | 0.0 | 6.4 | 0.00 | 0.05 | 0.05 | 97 | 1014.8 |
| 20260505000634 | 18 | 5 | 1.6 | 6.4 | 0.00 | 0.05 | 0.05 | 97 | 1014.7 |
| 20260504235902 | 18 | 6 | 1.6 | 4.8 | 0.00 | 0.05 | 0.05 | 97 | 1014.6 |
| 20260504235402 | 18 | 164 | 0.0 | 3.2 | 0.00 | 0.05 | 0.05 | 97 | 1014.6 |
| 20260504234901 | 18 | 273 | 0.0 | 3.2 | 0.00 | 0.05 | 0.05 | 97 | 1014.5 |
| 20260504234344 | 19 | 273 | 0.0 | 3.2 | 0.00 | 0.05 | 0.05 | 97 | 1014.7 |
| 20260504233842 | 19 | 84 | 1.6 | 6.4 | 0.00 | 0.05 | 0.05 | 97 | 1014.8 |
| 20260504233329 | 18 | 70 | 1.6 | 6.4 | 0.00 | 0.05 | 0.05 | 97 | 1014.9 |
| 20260504232804 | 19 | 337 | 0.0 | 3.2 | 0.00 | 0.05 | 0.05 | 97 | 1014.9 |
| 20260504232533 | 19 | 1 | 0.0 | 1.6 | 0.00 | 0.05 | 0.05 | 97 | 1014.7 |
| 20260504231802 | 19 | 111 | 1.6 | 4.8 | 0.00 | 0.05 | 0.05 | 97 | 1014.6 |
| 20260504231235 | 19 | 49 | 1.6 | 6.4 | 0.03 | 0.05 | 0.05 | 97 | 1014.6 |
| 20260504230733 | 19 | 262 | 0.0 | 6.4 | 0.03 | 0.05 | 0.05 | 97 | 1014.6 |
| 20260504230229 | 19 | 97 | 0.0 | 3.2 | 0.03 | 0.05 | 0.05 | 96 | 1014.5 |
| 20260504225659 | 18 | 97 | 0.0 | 3.2 | 0.03 | 0.05 | 0.05 | 96 | 1014.6 |
| 20260504225156 | 19 | 44 | 0.0 | 1.6 | 0.03 | 0.05 | 0.05 | 96 | 1014.5 |
| 20260504224634 | 19 | 44 | 0.0 | 3.2 | 0.03 | 0.05 | 0.05 | 96 | 1014.7 |
| 20260504224134 | 19 | 44 | 0.0 | 3.2 | 0.03 | 0.05 | 0.05 | 96 | 1014.5 |
| 20260504223631 | 19 | 79 | 0.0 | 0.0 | 0.03 | 0.05 | 0.05 | 96 | 1014.4 |
| 20260504223130 | 19 | 79 | 0.0 | 0.0 | 0.03 | 0.05 | 0.05 | 96 | 1014.4 |
| 20260504222604 | 19 | 79 | 0.0 | 0.0 | 0.03 | 0.05 | 0.05 | 96 | 1014.3 |
| 20260504222034 | 19 | 79 | 0.0 | 0.0 | 0.03 | 0.05 | 0.05 | 96 | 1014.3 |
| 20260504221531 | 19 | 79 | 0.0 | 0.0 | 0.00 | 0.03 | 0.05 | 96 | 1014.2 |
| 20260504221001 | 19 | 4 | 0.0 | 0.0 | 0.00 | 0.03 | 0.03 | 96 | 1014.1 |
| 20260504220457 | 19 | 4 | 0.0 | 3.2 | 0.00 | 0.03 | 0.03 | 96 | 1014.1 |
| 20260504220203 | 19 | 4 | 1.6 | 3.2 | 0.00 | 0.03 | 0.03 | 95 | 1013.9 |
| 20260504215404 | 19 | 214 | 1.6 | 4.8 | 0.00 | 0.03 | 0.03 | 95 | 1014.0 |
| 20260504214834 | 19 | 302 | 3.2 | 6.4 | 0.00 | 0.03 | 0.03 | 95 | 1014.1 |
| 20260504214604 | 19 | 194 | 1.6 | 6.4 | 0.00 | 0.03 | 0.03 | 95 | 1014.0 |
| 20260504213815 | 19 | 24 | 1.6 | 3.2 | 0.00 | 0.03 | 0.03 | 95 | 1014.0 |
| 20260504213318 | 19 | 266 | 1.6 | 3.2 | 0.00 | 0.03 | 0.03 | 95 | 1014.0 |
| 20260504212749 | 19 | 335 | 0.0 | 3.2 | 0.00 | 0.03 | 0.03 | 94 | 1014.0 |
| 20260504212520 | 19 | 212 | 0.0 | 3.2 | 0.00 | 0.03 | 0.03 | 94 | 1014.0 |
| 20260504211718 | 19 | 146 | 1.6 | 4.8 | 0.00 | 0.03 | 0.03 | 94 | 1013.9 |
| 20260504211428 | 19 | 146 | 1.6 | 4.8 | 0.00 | 0.03 | 0.03 | 94 | 1013.9 |
| 20260504210622 | 19 | 134 | 1.6 | 4.8 | 0.00 | 0.03 | 0.03 | 94 | 1013.9 |
| 20260504210347 | 20 | 261 | 1.6 | 4.8 | 0.00 | 0.03 | 0.03 | 94 | 1013.6 |
| 20260504205615 | 20 | 291 | 0.0 | 4.8 | 0.00 | 0.03 | 0.03 | 93 | 1013.6 |
| 20260504205112 | 20 | 118 | 0.0 | 4.8 | 0.00 | 0.03 | 0.03 | 93 | 1013.6 |
| 20260504204557 | 20 | 118 | 1.6 | 6.4 | 0.00 | 0.03 | 0.03 | 93 | 1013.6 |
| 20260504204324 | 20 | 118 | 1.6 | 6.4 | 0.00 | 0.03 | 0.03 | 93 | 1013.6 |
| 20260504203822 | 20 | 347 | 0.0 | 3.2 | 0.00 | 0.03 | 0.03 | 93 | 1013.4 |
| 20260504203048 | 20 | 299 | 0.0 | 3.2 | 0.00 | 0.03 | 0.03 | 93 | 1013.3 |
| 20260504202544 | 20 | 290 | 1.6 | 3.2 | 0.00 | 0.03 | 0.03 | 93 | 1013.6 |
| 20260504202012 | 20 | 231 | 1.6 | 3.2 | 0.00 | 0.03 | 0.03 | 93 | 1013.7 |
| 20260504201508 | 20 | 218 | 0.0 | 3.2 | 0.00 | 0.03 | 0.03 | 93 | 1013.5 |
| 20260504201001 | 20 | 153 | 0.0 | 3.2 | 0.00 | 0.03 | 0.03 | 93 | 1013.7 |
| 20260504200713 | 20 | 153 | 0.0 | 0.0 | 0.00 | 0.03 | 0.03 | 92 | 1013.6 |
| 20260504195941 | 20 | 153 | 0.0 | 3.2 | 0.00 | 0.03 | 0.03 | 93 | 1013.6 |
| 20260504195442 | 20 | 153 | 0.0 | 3.2 | 0.00 | 0.03 | 0.03 | 93 | 1013.4 |
| 20260504194939 | 20 | 236 | 0.0 | 3.2 | 0.00 | 0.03 | 0.03 | 92 | 1013.4 |
| 20260504194439 | 20 | 236 | 1.6 | 3.2 | 0.00 | 0.03 | 0.03 | 92 | 1013.5 |
| 20260504193912 | 20 | 131 | 0.0 | 3.2 | 0.00 | 0.03 | 0.03 | 92 | 1013.4 |
| 20260504193346 | 20 | 131 | 0.0 | 3.2 | 0.00 | 0.03 | 0.03 | 93 | 1013.4 |
| 20260504192819 | 20 | 131 | 0.0 | 3.2 | 0.00 | 0.03 | 0.03 | 92 | 1013.4 |
| 20260504192549 | 20 | 131 | 1.6 | 3.2 | 0.00 | 0.03 | 0.03 | 92 | 1013.4 |
| 20260504191753 | 20 | 247 | 0.0 | 3.2 | 0.00 | 0.03 | 0.03 | 93 | 1013.6 |
| 20260504191230 | 20 | 247 | 1.6 | 4.8 | 0.00 | 0.03 | 0.03 | 93 | 1013.6 |
| 20260504190730 | 20 | 291 | 1.6 | 4.8 | 0.00 | 0.03 | 0.03 | 93 | 1013.5 |
| 20260504190222 | 20 | 241 | 1.6 | 4.8 | 0.00 | 0.03 | 0.03 | 92 | 1013.6 |
| 20260504185709 | 20 | 241 | 1.6 | 4.8 | 0.03 | 0.03 | 0.03 | 92 | 1013.7 |
| 20260504185206 | 20 | 248 | 0.0 | 3.2 | 0.03 | 0.03 | 0.03 | 92 | 1013.6 |
| 20260504184706 | 20 | 248 | 0.0 | 3.2 | 0.03 | 0.03 | 0.03 | 91 | 1013.7 |
| 20260504184435 | 20 | 248 | 0.0 | 3.2 | 0.03 | 0.03 | 0.03 | 91 | 1013.7 |
| 20260504183637 | 20 | 336 | 0.0 | 1.6 | 0.03 | 0.03 | 0.03 | 91 | 1013.8 |
| 20260504183112 | 20 | 323 | 1.6 | 4.8 | 0.03 | 0.03 | 0.03 | 91 | 1013.9 |
| 20260504182559 | 20 | 323 | 3.2 | 6.4 | 0.03 | 0.03 | 0.03 | 89 | 1014.0 |
| 20260504182328 | 20 | 323 | 3.2 | 6.4 | 0.03 | 0.03 | 0.03 | 88 | 1014.0 |
| 20260504181556 | 20 | 346 | 3.2 | 6.4 | 0.03 | 0.03 | 0.03 | 88 | 1014.0 |
| 20260504181057 | 20 | 13 | 3.2 | 11.3 | 0.03 | 0.03 | 0.03 | 87 | 1014.1 |
| 20260504180533 | 21 | 336 | 3.2 | 11.3 | 0.03 | 0.03 | 0.03 | 86 | 1014.1 |
| 20260504180035 | 21 | 293 | 6.4 | 11.3 | 0.00 | 0.00 | 0.00 | 86 | 1014.2 |
| 20260504175533 | 21 | 302 | 8.0 | 16.1 | 0.00 | 0.00 | 0.00 | 84 | 1014.1 |
| 20260504175032 | 21 | 18 | 4.8 | 16.1 | 0.00 | 0.00 | 0.00 | 83 | 1014.0 |
| 20260504174738 | 21 | 264 | 1.6 | 6.4 | 0.00 | 0.00 | 0.00 | 82 | 1014.0 |
| 20260504173943 | 21 | 305 | 1.6 | 4.8 | 0.00 | 0.00 | 0.00 | 84 | 1014.0 |
| 20260504173443 | 21 | 305 | 1.6 | 4.8 | 0.00 | 0.00 | 0.00 | 83 | 1013.9 |
| 20260504172941 | 21 | 285 | 1.6 | 4.8 | 0.00 | 0.00 | 0.00 | 83 | 1014.0 |
| 20260504172431 | 21 | 285 | 1.6 | 4.8 | 0.00 | 0.00 | 0.00 | 82 | 1013.9 |
| 20260504171929 | 22 | 285 | 1.6 | 4.8 | 0.00 | 0.00 | 0.00 | 81 | 1014.0 |
| 20260504171429 | 22 | 283 | 1.6 | 4.8 | 0.00 | 0.00 | 0.00 | 81 | 1014.1 |
| 20260504171133 | 22 | 292 | 0.0 | 3.2 | 0.00 | 0.00 | 0.00 | 81 | 1014.0 |
| 20260504170352 | 22 | 258 | 1.6 | 4.8 | 0.00 | 0.00 | 0.00 | 81 | 1013.9 |
| 20260504160200 | 22 | 298 | 4.8 | 11.3 | 0.00 | 0.00 | 0.00 | 77 | 1014.6 |
| 20260504151116 | 22 | 314 | 6.4 | 14.5 | 0.00 | 0.00 | 0.00 | 76 | 1015.2 |
| 20260504150616 | 22 | 348 | 6.4 | 14.5 | 0.00 | 0.00 | 0.00 | 75 | 1015.1 |
| 20260504150114 | 22 | 350 | 4.8 | 12.9 | 0.00 | 0.00 | 0.00 | 76 | 1015.2 |
| 20260504140932 | 18 | 120 | 1.6 | 8.0 | 0.00 | 0.00 | 0.00 | 89 | 1015.7 |
| 20260504140636 | 18 | 224 | 3.2 | 8.0 | 0.00 | 0.00 | 0.00 | 92 | 1015.8 |
| 20260504130351 | 13 | 88 | 1.6 | 4.8 | 0.00 | 0.00 | 0.00 | 99 | 1016.3 |